Weather History for Vernal, UT

Change the Weather History Date:

Monday, February 4, 2013

  Actual Average Record
Temperature  
Mean Temperature 11 °F 22 °F  
Max Temperature 20 °F 31 °F 57 °F (1963)
Min Temperature 2 °F 12 °F -16 °F (1933)
Degree Days  
Heating Degree Days 54 43  
Month to date heating degree days 199 175  
Since 1 July heating degree days 4758 4570  
Cooling Degree Days 0 0  
Month to date cooling degree days 0 0  
Year to date cooling degree days 0 0  
Moisture  
Dew Point 8 °F    
Average Humidity 87    
Maximum Humidity 100    
Minimum Humidity 73    
Precipitation  
Precipitation 0.00 in 0.02 in 0.23 in (1938)
Month to date precipitation 0.00 0.07  
Year to date precipitation 0.87 0.57  
Sea Level Pressure  
Sea Level Pressure 30.33 in    
Wind  
Wind Speed 2 mph (ENE)    
Max Wind Speed 6 mph    
Max Gust Speed 7 mph    
Visibility 3 miles    
Events Fog , Snow    
T = Trace of Precipitation, MM = Missing Value Source: NWS Daily Summary

Daily Weather History Graph

Daily Weather History Graph

Search for Another Location

Airport:

Trip Planner

Search our weather history database for the weather conditions in past years. The results will help you decide how hot, cold, wet, or windy it might be!

Date:

Astronomy

Feb. 04, 2013 Rise Set
Actual Time 7:24 AM MST 5:40 PM MST
Civil Twilight 6:55 AM MST 6:09 PM MST
Nautical Twilight 6:23 AM MST 6:41 PM MST
Astronomical Twilight 5:51 AM MST 7:13 PM MST
Moon 2:03 AM MST (2/4) 12:06 PM MST (2/4)
Length of Visible Light 11h 13m
Length of Day
10h 16m
Last Quarter, 36% of the Moon is Illuminated
Feb 4
Last Quarter
Feb 10
New
Feb 17
First Quarter
Feb 25
Full
Mar 4
Last Quarter

Hourly Weather History & Observations

Time (MST) Temp. Windchill Dew Point Humidity Pressure Visibility Wind Dir Wind Speed Gust Speed Precip Events Conditions
12:40 AM 10.4 °F 4.0 °F 6.8 °F 85% 30.18 in 1.8 mi WNW 3.5 mph - N/A   Overcast
12:44 AM 10.4 °F 2.2 °F 6.8 °F 85% 30.18 in 3.0 mi NW 4.6 mph - N/A   Overcast
12:53 AM 10.0 °F 1.8 °F 7.0 °F 87% 30.37 in 4.0 mi WNW 4.6 mph - N/A   Overcast
1:19 AM 6.8 °F - 3.2 °F 85% 30.17 in 5.0 mi Calm Calm - N/A   Scattered Clouds
1:53 AM 5.0 °F - 1.0 °F 84% 30.38 in 6.0 mi Calm Calm - N/A   Clear
4:53 AM 6.1 °F - 3.0 °F 87% 30.39 in 4.0 mi Calm Calm - N/A   Overcast
5:19 AM 6.8 °F -0.1 °F 3.2 °F 85% 30.18 in 0.8 mi SW 3.5 mph - N/A   Overcast
5:53 AM 8.1 °F - 6.1 °F 92% 30.40 in 0.2 mi Calm Calm - N/A Fog Light Freezing Fog
6:53 AM 9.0 °F 2.4 °F 6.1 °F 88% 30.42 in 0.2 mi ENE 3.5 mph - 0.00 in Fog , Snow Light Snow
7:53 AM 8.1 °F 1.4 °F 5.0 °F 87% 30.45 in 0.2 mi East 3.5 mph - 0.00 in Fog , Snow Light Snow
8:24 AM 8.6 °F - 6.8 °F 92% 30.21 in 0.2 mi Calm Calm - 0.00 in Fog Light Freezing Fog
8:53 AM 9.0 °F - 8.1 °F 96% 30.46 in 0.2 mi Calm Calm - 0.00 in Fog Light Freezing Fog
9:16 AM 10.4 °F - 8.6 °F 92% 30.22 in 1.0 mi Calm Calm - N/A   Overcast
9:21 AM 10.4 °F 4.0 °F 8.6 °F 92% 30.22 in 0.5 mi East 3.5 mph - N/A Fog Light Freezing Fog
9:53 AM 10.9 °F - 10.0 °F 96% 30.45 in 0.2 mi Calm Calm - N/A Fog Light Freezing Fog
10:30 AM 12.2 °F - 12.2 °F 100% 30.22 in 1.8 mi Calm Calm - 0.00 in   Overcast
10:34 AM 12.2 °F - 12.2 °F 100% 30.22 in 3.0 mi Calm Calm - 0.00 in   Overcast
10:39 AM 12.2 °F - 12.2 °F 100% 30.22 in 2.0 mi Calm Calm - 0.00 in   Overcast
10:42 AM 12.2 °F 6.1 °F 12.2 °F 100% 30.22 in 0.8 mi ENE 3.5 mph - 0.00 in Snow Light Snow
10:53 AM 14.0 °F - 12.0 °F 92% 30.44 in 0.5 mi Calm Calm - 0.00 in Fog , Snow Light Snow
11:04 AM 15.8 °F - 15.8 °F 100% 30.22 in 2.0 mi Calm Calm - 0.00 in Snow Light Snow
11:29 AM 12.2 °F - 10.4 °F 92% 30.21 in 8.0 mi Calm Calm - 0.00 in   Scattered Clouds
11:53 AM 14.0 °F - 10.9 °F 88% 30.41 in 7.0 mi Calm Calm - 0.00 in   Clear
12:53 PM 18.0 °F 12.7 °F 10.9 °F 74% 30.36 in 8.0 mi ENE 3.5 mph - N/A   Clear
1:53 PM 17.1 °F 11.7 °F 12.9 °F 84% 30.37 in 8.0 mi East 3.5 mph - N/A   Mostly Cloudy
2:53 PM 19.0 °F - 12.9 °F 77% 30.35 in 8.0 mi Calm Calm - N/A   Clear
3:53 PM 19.0 °F 12.3 °F 12.9 °F 77% 30.35 in 8.0 mi East 4.6 mph - N/A   Clear
4:53 PM 17.1 °F 11.7 °F 12.0 °F 81% 30.35 in 5.0 mi ESE 3.5 mph - N/A   Haze
5:53 PM 14.0 °F - 10.0 °F 84% 30.37 in 4.0 mi Calm Calm - N/A   Clear
6:53 PM 8.1 °F - 7.0 °F 95% 30.40 in 5.0 mi Calm Calm - N/A   Clear
7:53 PM 10.9 °F 4.7 °F 8.1 °F 88% 30.38 in 5.0 mi WSW 3.5 mph - N/A   Clear
8:53 PM 9.0 °F - 5.0 °F 84% 30.40 in 4.0 mi Calm Calm - N/A   Clear
9:53 PM 8.1 °F -0.5 °F 5.0 °F 87% 30.41 in 4.0 mi WSW 4.6 mph - N/A   Clear
10:53 PM 7.0 °F -3.3 °F 3.9 °F 87% 30.40 in 4.0 mi West 5.8 mph - N/A   Clear
11:53 PM 7.0 °F - 3.0 °F 84% 30.40 in 4.0 mi Calm Calm - N/A   Clear